Tracking 31027 objects as of 19-Jul-2025
HD Live streaming from Space Station
objects crossing your sky now

ASAP-S

Track ASAP-S now!
10-day predictions
ASAP-S is classified as:


NORAD ID: 38013
Int'l Code: 2011-076G
Perigee: 519.0 km
Apogee: 528.5 km
Inclination: 98.0 °
Period: 95.0 minutes
Semi major axis: 6894 km
RCS: 2.764 m2 (large)
Launch date: December 17, 2011
Source: France (FR)
Launch site: FRENCH GUIANA (FRGUI)
Your satellite tracking list
XMM
Track 1 satellite(s)




NASA's NSSDC Master Catalog

Two Line Element Set (TLE):
1 38013U 11076G   25199.58660352  .00005643  00000-0  29388-3 0  9992
2 38013  98.0221 103.6161 0006849 215.9662 144.1109 15.16437368742136
Source of the keplerian elements: AFSPC